Location: Red Rock Canyon
(36.1333°N, 115.4333°W)
Time: 02:26:37
(UTC-07:00)

ISS - Visible Passes

Search period start: 29 April 2017 00:00
Search period end: 09 May 2017 00:00
Orbit: 401 x 409 km, 51.6° (Epoch: 29 April)

Date Brightness Start Highest point End Pass type
(mag) Time Alt. Az. Time Alt. Az. Time Alt. Az.
02 May -2.0 05:15:54 10° S 05:18:42 27° SE 05:21:31 10° ENE visible
03 May -1.1 04:25:10 10° SSE 04:26:49 13° SE 04:28:29 10° E visible
04 May -3.8 05:07:39 10° SW 05:10:55 79° SE 05:14:10 10° NE visible
05 May -2.7 04:17:41 25° S 04:18:54 35° SE 04:21:56 10° ENE visible
06 May -1.3 03:27:44 16° ESE 03:27:44 16° ESE 03:29:13 10° E visible
06 May -2.9 05:00:24 12° WSW 05:03:13 37° NW 05:06:19 10° NE visible
07 May -3.9 04:10:22 51° WSW 04:11:04 77° NW 04:14:21 10° NE visible
08 May -2.0 03:20:16 29° ENE 03:20:16 29° ENE 03:22:10 10° ENE visible
08 May -1.7 04:53:16 10° WNW 04:55:39 18° NNW 04:58:03 10° NNE visible
